| time (UTC) | temp C | wind direction | speed KPH | gust KPH | rain 1hr cm | rain 24hr cm | rain mn cm | humidity % | barometer mb |
| 20260506143013 | 14 | 172 | 3.2 | 14.5 | 0.00 | 0.00 | 0.00 | 87 | 1009.9 |
| 20260506141510 | 15 | 164 | 4.8 | 16.1 | 0.00 | 0.00 | 0.00 | 86 | 1010.2 |
| 20260506140009 | 15 | 157 | 0.0 | 17.7 | 0.00 | 0.00 | 0.00 | 86 | 1010.2 |
| 20260506134509 | 15 | 185 | 1.6 | 17.7 | 0.00 | 0.00 | 0.00 | 86 | 1010.4 |
| 20260506133007 | 15 | 190 | 3.2 | 19.3 | 0.00 | 0.00 | 0.00 | 86 | 1010.5 |
| 20260506131507 | 15 | 157 | 4.8 | 17.7 | 0.00 | 0.00 | 0.00 | 87 | 1010.2 |
| 20260506130005 | 14 | 190 | 3.2 | 25.7 | 0.00 | 0.00 | 0.00 | 88 | 1010.2 |
| 20260506124504 | 14 | 169 | 3.2 | 14.5 | 0.00 | 0.00 | 0.00 | 87 | 1010.3 |
| 20260506123002 | 15 | 101 | 1.6 | 14.5 | 0.00 | 0.00 | 0.00 | 88 | 1010.3 |
| 20260506121501 | 14 | 180 | 3.2 | 14.5 | 0.00 | 0.00 | 0.00 | 90 | 1010.6 |
| 20260506120106 | 13 | 184 | 1.6 | 11.3 | 0.00 | 0.00 | 0.00 | 91 | 1010.7 |
| 20260506114558 | 13 | 193 | 3.2 | 14.5 | 0.00 | 0.00 | 0.00 | 92 | 1010.7 |
| 20260506113100 | 13 | 188 | 4.8 | 16.1 | 0.00 | 0.00 | 0.00 | 92 | 1010.5 |
| 20260506111559 | 13 | 153 | 4.8 | 16.1 | 0.00 | 0.00 | 0.00 | 93 | 1010.4 |
| 20260506110057 | 12 | 157 | 1.6 | 11.3 | 0.00 | 0.00 | 0.00 | 93 | 1010.7 |
| 20260506104559 | 12 | 167 | 4.8 | 17.7 | 0.00 | 0.00 | 0.00 | 93 | 1010.5 |
| 20260506103055 | 12 | 192 | 1.6 | 12.9 | 0.00 | 0.00 | 0.00 | 93 | 1010.4 |
| 20260506101553 | 12 | 168 | 1.6 | 12.9 | 0.00 | 0.00 | 0.00 | 93 | 1010.3 |
| 20260506100059 | 12 | 159 | 4.8 | 12.9 | 0.00 | 0.00 | 0.00 | 93 | 1010.3 |
| 20260506094602 | 12 | 195 | 1.6 | 6.4 | 0.00 | 0.00 | 0.00 | 92 | 1010.3 |
| 20260506093047 | 12 | 147 | 1.6 | 11.3 | 0.00 | 0.00 | 0.00 | 92 | 1010.4 |
| 20260506091545 | 13 | 162 | 3.2 | 16.1 | 0.00 | 0.00 | 0.00 | 92 | 1010.4 |
| 20260506090044 | 13 | 153 | 3.2 | 14.5 | 0.00 | 0.00 | 0.00 | 92 | 1010.5 |
| 20260506084544 | 13 | 145 | 1.6 | 11.3 | 0.00 | 0.00 | 0.00 | 91 | 1010.5 |
| 20260506083042 | 13 | 149 | 3.2 | 11.3 | 0.00 | 0.00 | 0.00 | 91 | 1010.7 |
| 20260506081640 | 13 | 170 | 0.0 | 8.0 | 0.00 | 0.00 | 0.00 | 91 | 1010.7 |
| 20260506073037 | 13 | 191 | 3.2 | 14.5 | 0.00 | 0.00 | 0.00 | 90 | 1010.8 |
| 20260506071536 | 13 | 177 | 6.4 | 16.1 | 0.00 | 0.00 | 0.00 | 90 | 1011.0 |
| 20260506061531 | 13 | 178 | 1.6 | 9.7 | 0.00 | 0.00 | 0.00 | 89 | 1010.9 |
| 20260506044533 | 13 | 169 | 3.2 | 24.1 | 0.00 | 0.00 | 0.00 | 86 | 1011.3 |
| 20260506043023 | 14 | 214 | 3.2 | 16.1 | 0.00 | 0.00 | 0.00 | 86 | 1011.2 |
| 20260506041522 | 14 | 168 | 1.6 | 16.1 | 0.00 | 0.00 | 0.00 | 85 | 1011.3 |
| 20260506040017 | 14 | 180 | 4.8 | 12.9 | 0.00 | 0.00 | 0.00 | 85 | 1011.3 |
| 20260506034516 | 14 | 211 | 3.2 | 19.3 | 0.00 | 0.00 | 0.00 | 84 | 1011.2 |
| 20260506033015 | 15 | 225 | 4.8 | 17.7 | 0.00 | 0.00 | 0.00 | 83 | 1011.1 |
| 20260506031517 | 15 | 222 | 4.8 | 22.5 | 0.00 | 0.00 | 0.00 | 83 | 1011.0 |
| 20260506030015 | 15 | 173 | 3.2 | 11.3 | 0.00 | 0.00 | 0.00 | 83 | 1011.0 |
| 20260506024518 | 15 | 232 | 4.8 | 19.3 | 0.00 | 0.00 | 0.00 | 83 | 1011.1 |
| 20260506023018 | 15 | 197 | 3.2 | 16.1 | 0.00 | 0.00 | 0.00 | 82 | 1011.2 |
| 20260506021514 | 15 | 169 | 4.8 | 12.9 | 0.00 | 0.00 | 0.00 | 82 | 1011.1 |
| 20260506020011 | 15 | 255 | 3.2 | 14.5 | 0.00 | 0.00 | 0.00 | 80 | 1011.1 |
| 20260506014506 | 15 | 170 | 3.2 | 19.3 | 0.00 | 0.00 | 0.00 | 80 | 1011.0 |
| 20260506013003 | 15 | 146 | 4.8 | 22.5 | 0.00 | 0.00 | 0.00 | 79 | 1010.9 |
| 20260506011623 | 15 | 155 | 4.8 | 25.7 | 0.00 | 0.00 | 0.00 | 79 | 1010.8 |
| 20260506004549 | 16 | 211 | 6.4 | 22.5 | 0.00 | 0.00 | 0.00 | 77 | 1010.5 |
| 20260506003045 | 16 | 182 | 4.8 | 17.7 | 0.00 | 0.00 | 0.00 | 76 | 1010.3 |
| 20260506001543 | 17 | 178 | 4.8 | 12.9 | 0.00 | 0.00 | 0.00 | 75 | 1010.0 |
| 20260506000041 | 16 | 143 | 4.8 | 16.1 | 0.00 | 0.00 | 0.00 | 74 | 1009.8 |
| 20260505234532 | 17 | 202 | 8.0 | 20.9 | 0.00 | 0.00 | 0.00 | 74 | 1009.6 |
| 20260505233032 | 17 | 209 | 4.8 | 19.3 | 0.00 | 0.00 | 0.00 | 72 | 1009.2 |
| 20260505231527 | 17 | 170 | 8.0 | 17.7 | 0.00 | 0.00 | 0.00 | 73 | 1008.9 |
| 20260505230019 | 17 | 161 | 9.7 | 25.7 | 0.00 | 0.00 | 0.00 | 74 | 1008.9 |
| 20260505224514 | 16 | 178 | 6.4 | 19.3 | 0.00 | 0.00 | 0.00 | 74 | 1009.0 |
| 20260505223016 | 16 | 211 | 8.0 | 29.0 | 0.00 | 0.00 | 0.00 | 74 | 1008.8 |
| 20260505221505 | 17 | 163 | 9.7 | 25.7 | 0.00 | 0.00 | 0.00 | 72 | 1008.8 |
| 20260505220108 | 17 | 167 | 8.0 | 22.5 | 0.00 | 0.00 | 0.00 | 72 | 1008.6 |
| 20260505214558 | 17 | 187 | 8.0 | 25.7 | 0.00 | 0.00 | 0.00 | 71 | 1008.6 |
| 20260505213050 | 17 | 174 | 8.0 | 29.0 | 0.00 | 0.00 | 0.00 | 71 | 1008.7 |
| 20260505211546 | 17 | 221 | 8.0 | 25.7 | 0.00 | 0.00 | 0.00 | 71 | 1008.4 |
| 20260505210049 | 17 | 200 | 9.7 | 25.7 | 0.00 | 0.00 | 0.00 | 72 | 1008.4 |
| 20260505204542 | 17 | 226 | 6.4 | 25.7 | 0.00 | 0.00 | 0.00 | 72 | 1008.5 |
| 20260505203034 | 18 | 203 | 6.4 | 22.5 | 0.00 | 0.00 | 0.00 | 71 | 1008.6 |
| 20260505201528 | 18 | 165 | 6.4 | 12.9 | 0.00 | 0.00 | 0.00 | 70 | 1008.6 |
| 20260505200024 | 18 | 191 | 8.0 | 22.5 | 0.00 | 0.00 | 0.00 | 71 | 1008.8 |
| 20260505194522 | 18 | 157 | 8.0 | 19.3 | 0.00 | 0.00 | 0.00 | 71 | 1009.1 |
| 20260505193025 | 18 | 211 | 8.0 | 24.1 | 0.00 | 0.00 | 0.00 | 69 | 1009.2 |
| 20260505191512 | 18 | 115 | 6.4 | 17.7 | 0.00 | 0.00 | 0.00 | 71 | 1009.6 |
| 20260505190008 | 18 | 168 | 6.4 | 22.5 | 0.00 | 0.00 | 0.00 | 71 | 1009.8 |
| 20260505184502 | 18 | 151 | 6.4 | 25.7 | 0.00 | 0.00 | 0.00 | 71 | 1010.2 |
| 20260505183059 | 18 | 227 | 6.4 | 17.7 | 0.00 | 0.00 | 0.00 | 70 | 1010.3 |
| 20260505181553 | 18 | 161 | 6.4 | 22.5 | 0.00 | 0.00 | 0.00 | 71 | 1010.5 |
| 20260505180049 | 18 | 103 | 4.8 | 17.7 | 0.00 | 0.00 | 0.00 | 72 | 1010.5 |
| 20260505174544 | 18 | 148 | 6.4 | 19.3 | 0.00 | 0.00 | 0.00 | 72 | 1010.6 |
| 20260505173040 | 18 | 167 | 4.8 | 19.3 | 0.00 | 0.00 | 0.00 | 71 | 1010.7 |
| 20260505171544 | 19 | 177 | 1.6 | 19.3 | 0.00 | 0.00 | 0.00 | 70 | 1010.8 |
| 20260505170039 | 19 | 158 | 3.2 | 17.7 | 0.00 | 0.00 | 0.00 | 69 | 1010.8 |
| 20260505164553 | 20 | 231 | 1.6 | 14.5 | 0.00 | 0.00 | 0.00 | 69 | 1010.9 |
| 20260505163037 | 19 | 134 | 1.6 | 12.9 | 0.00 | 0.00 | 0.00 | 70 | 1010.9 |
| 20260505161548 | 20 | 252 | 3.2 | 12.9 | 0.00 | 0.00 | 0.00 | 68 | 1011.2 |
| 20260505153024 | 19 | 128 | 1.6 | 8.0 | 0.00 | 0.00 | 0.00 | 71 | 1011.4 |
| 20260505151519 | 18 | 127 | 3.2 | 14.5 | 0.00 | 0.00 | 0.00 | 72 | 1011.6 |